Weather in Bahrain International Airport

Bahrain     26°16′08″N   50°37′34″E
temp.,
°C
wind,
m/s
gust,
m/s
humid.,
%
clouds,
%
prec.,
mm/h
press.,
hPa
HPBL,
m
11 may, tue
tue1100:00+28wsw11626 0.0 100611
03:00+29w33543 0.0 100521
06:00+28w445868 0.0 100746
09:00+29w225547 0.0 100811
12:00+29n23511 0.0 100738
15:00+30nne33490 0.0 100622
18:00+30ene445051 0.0 100520
21:00+29e44520 0.0 100519
12 may, wed
wed1200:00+29se33580 0.0 100521
03:00+29ssw33540 0.0 100514
06:00+29w22490 0.0 100611
09:00+29w22560 0.0 100614
12:00+30ne11560 0.0 100636
15:00+30nne44540 0.0 100442
18:00+30ne22530 0.0 100311
21:00+30ene22530 0.0 100411
13 may, thu
thu1300:00+29ese33573 0.0 100315
03:00+29s11621 0.0 100311
06:00+30wsw33510 0.0 100412
09:00+29nw33570 0.0 100529
12:00+30n45560 0.0 100444
15:00+30n55580 0.0 100356
18:00+29n44640 0.0 100239
21:00+30nnw23630 0.0 100311
14 may, fri
fri1400:00+29nnw236144 0.0 100211
03:00+30wnw33570 0.0 100217
06:00+29wnw44640 0.0 100339
09:00+30nw55550 0.0 100446
12:00+30nnw55540 0.0 100351
15:00+30n45630 0.0 100245
18:00+30ne57630 0.0 100150
21:00+30ne44660 0.0 100136
15 may, sat
sat1500:00+30ne33630 0.0 99911
03:00+29wnw44692 0.0 100044
06:00+29nw46650 0.0 100271
09:00+29nw56610 0.0 100367
12:00+29nw68610 0.0 100286
15:00+30n46650 0.0 100156
18:00
21:00+29n33690 0.0 100234